Location: site
(53.0000°N, 23.0500°E)
Time: 18:43:13
(UTC+01:00)

SAOCOM 1-A - Pass Details

Date: 12 December 2020
Orbit: 621 x 623 km, 97.9° (Epoch: 24 January)

Event Time Altitude Azimuth Distance (km) Brightness Sun altitude
Exits shadow 17:05:33 25° 99° (E) 1,262 ? -15.9°
Drops below altitude 10° 17:08:54 10° 149° (SSE) 1,991 ? -16.4°
Sets 17:11:23 0° 163° (SSE) 2,892 ? -16.8°
